This is the latest recevied weather packets stored in our database for station/object N4QD-13. If no packets are shown the sender has not sent any weather packets the latest 10 day(s).
| Time | Temp. | Humidity | Pressure | Rain* | Wind** | Luminosity | Snow |
|---|---|---|---|---|---|---|---|
| 1777466989 | 15.56° C | 98% | 1015.2 hPa | 0 mm | - | 91 W/m² | - |
| 1777466688 | 15.56° C | 98% | 1015.2 hPa | 0 mm | - | 78 W/m² | - |
| 1777466384 | 15° C | 99% | 1015.1 hPa | 0 mm | - | 111 W/m² | - |
| 1777466080 | 15.56° C | 99% | 1014.9 hPa | 0 mm | - | 124 W/m² | - |
| 1777465777 | 15° C | 99% | 1014.4 hPa | 0 mm | - | 125 W/m² | - |
| 1777465473 | 15° C | 99% | 1014.8 hPa | 0 mm | - | 90 W/m² | - |
| 1777465171 | 15° C | 99% | 1014.6 hPa | 0 mm | - | 71 W/m² | - |
| 1777464867 | 14.44° C | 99% | 1014.7 hPa | 0 mm | - | 70 W/m² | - |
| 1777464562 | 14.44° C | 99% | 1014.4 hPa | 0 mm | - | 62 W/m² | - |
| 1777464259 | 14.44° C | 99% | 1014.3 hPa | 0 mm | - | 63 W/m² | - |
| 1777463954 | 14.44° C | 99% | 1013.9 hPa | 0 mm | - | 64 W/m² | - |
| 1777463651 | 14.44° C | 99% | 1013.9 hPa | 0 mm | - | 69 W/m² | - |
| 1777463350 | 13.89° C | 99% | 1014.2 hPa | 0 mm | - | 52 W/m² | - |
| 1777463047 | 13.89° C | 99% | 1014.1 hPa | 0 mm | - | 53 W/m² | - |
| 1777462742 | 13.89° C | 99% | 1014.3 hPa | 0 mm | - | 43 W/m² | - |
| 1777462438 | 13.89° C | 99% | 1014.4 hPa | 0 mm | - | 42 W/m² | - |
| 1777462135 | 13.89° C | 99% | 1014.1 hPa | 0 mm | - | 37 W/m² | - |
| 1777461831 | 13.89° C | 99% | 1014.2 hPa | 0 mm | - | 34 W/m² | - |
| 1777461527 | 13.89° C | 99% | 1013.9 hPa | 0 mm | - | 35 W/m² | - |
| 1777461224 | 13.89° C | 99% | 1014 hPa | 0 mm | - | 29 W/m² | - |
| 1777460918 | 13.89° C | 99% | 1014.1 hPa | 0 mm | - | 19 W/m² | - |
| 1777460614 | 13.89° C | 99% | 1013.9 hPa | 0 mm | - | 20 W/m² | - |
| 1777460310 | 13.89° C | 99% | 1014 hPa | 0 mm | - | 16 W/m² | - |
| 1777460008 | 13.33° C | 99% | 1014.2 hPa | 0 mm | - | 12 W/m² | - |
| 1777459704 | 13.33° C | 99% | 1014.4 hPa | 0 mm | - | 9 W/m² | - |
* Rain latest hour (hover to see other rain measurements)
** Current wind speed in m/s (hover to see current wind gust speed)